TimeEDT,TemperatureF,Dew PointF,Humidity,Sea Level PressureIn,VisibilityMPH,Wind Direction,Wind SpeedMPH,Gust SpeedMPH,PrecipitationIn,Events,Conditions,WindDirDegrees,DateUTC
12:51 AM,48.9,46.9,93,30.41,10.0,Calm,Calm,-,N/A,,Clear,0,2011-10-09 04:51:00
1:51 AM,46.0,44.1,93,30.42,10.0,Calm,Calm,-,N/A,,Clear,0,2011-10-09 05:51:00
2:51 AM,46.9,45.0,93,30.41,10.0,Calm,Calm,-,N/A,,Clear,0,2011-10-09 06:51:00
3:51 AM,45.0,45.0,100,30.41,9.0,Calm,Calm,-,N/A,,Clear,0,2011-10-09 07:51:00
4:42 AM,44.6,42.8,93,30.41,2.5,Calm,Calm,-,N/A,,Clear,0,2011-10-09 08:42:00
4:51 AM,45.0,45.0,100,30.42,4.0,Calm,Calm,-,N/A,,Clear,0,2011-10-09 08:51:00
5:35 AM,42.8,42.8,100,30.41,1.5,Calm,Calm,-,N/A,,Clear,0,2011-10-09 09:35:00
5:42 AM,42.8,42.8,100,30.41,1.2,Calm,Calm,-,N/A,,Clear,0,2011-10-09 09:42:00
5:44 AM,42.8,42.8,100,30.41,2.5,Calm,Calm,-,N/A,,Clear,0,2011-10-09 09:44:00
5:51 AM,43.0,42.1,97,30.43,5.0,Calm,Calm,-,N/A,,Clear,0,2011-10-09 09:51:00
5:55 AM,42.8,42.8,100,30.41,1.8,Calm,Calm,-,N/A,,Clear,0,2011-10-09 09:55:00
6:09 AM,42.8,41.0,93,30.41,3.0,Calm,Calm,-,N/A,,Clear,0,2011-10-09 10:09:00
6:51 AM,42.1,41.0,96,30.44,7.0,Calm,Calm,-,N/A,,Clear,0,2011-10-09 10:51:00
6:58 AM,42.8,41.0,93,30.42,1.5,Calm,Calm,-,N/A,,Clear,0,2011-10-09 10:58:00
7:00 AM,42.8,41.0,93,30.42,1.0,Calm,Calm,-,N/A,,Clear,0,2011-10-09 11:00:00
7:08 AM,44.6,42.8,93,30.42,0.5,Calm,Calm,-,N/A,Fog,Fog,0,2011-10-09 11:08:00
7:21 AM,42.8,41.0,93,30.42,2.0,Calm,Calm,-,N/A,,Clear,0,2011-10-09 11:21:00
7:31 AM,44.6,42.8,93,30.42,1.8,Calm,Calm,-,N/A,,Clear,0,2011-10-09 11:31:00
7:35 AM,44.6,44.6,100,30.42,3.0,Calm,Calm,-,N/A,,Clear,0,2011-10-09 11:35:00
7:51 AM,45.0,44.1,97,30.44,6.0,Calm,Calm,-,N/A,,Clear,0,2011-10-09 11:51:00
8:51 AM,51.1,48.9,92,30.45,10.0,Calm,Calm,-,N/A,,Clear,0,2011-10-09 12:51:00
9:51 AM,57.0,52.0,83,30.43,10.0,Calm,Calm,-,N/A,,Clear,0,2011-10-09 13:51:00
10:51 AM,66.9,51.1,57,30.41,10.0,Calm,Calm,-,N/A,,Clear,0,2011-10-09 14:51:00
11:51 AM,73.0,50.0,44,30.40,10.0,North,4.6,-,N/A,,Clear,350,2011-10-09 15:51:00
12:51 PM,75.0,51.1,43,30.37,10.0,Variable,5.8,-,N/A,,Clear,0,2011-10-09 16:51:00
1:51 PM,77.0,48.9,37,30.35,10.0,Variable,6.9,-,N/A,,Clear,0,2011-10-09 17:51:00
2:51 PM,77.0,48.0,36,30.33,10.0,NNW,5.8,-,N/A,,Clear,340,2011-10-09 18:51:00
3:51 PM,77.0,48.0,36,30.31,10.0,WNW,5.8,-,N/A,,Clear,290,2011-10-09 19:51:00
4:51 PM,75.9,48.9,38,30.30,10.0,WNW,9.2,-,N/A,,Clear,300,2011-10-09 20:51:00
5:51 PM,73.0,48.9,42,30.31,10.0,Calm,Calm,-,N/A,,Clear,0,2011-10-09 21:51:00
6:51 PM,59.0,50.0,72,30.30,10.0,SSW,3.5,-,N/A,,Clear,200,2011-10-09 22:51:00
7:51 PM,66.0,52.0,60,30.31,10.0,Calm,Calm,-,N/A,,Clear,0,2011-10-09 23:51:00
8:51 PM,55.9,51.1,84,30.32,10.0,Calm,Calm,-,N/A,,Clear,0,2011-10-10 00:51:00
9:51 PM,54.0,51.1,90,30.32,10.0,Calm,Calm,-,N/A,,Clear,0,2011-10-10 01:51:00
10:51 PM,54.0,50.0,86,30.31,10.0,Calm,Calm,-,N/A,,Clear,0,2011-10-10 02:51:00
11:51 PM,53.1,50.0,89,30.30,10.0,South,3.5,-,N/A,,Clear,180,2011-10-10 03:51:00